DW4063 Weather Reports


Display with metric or nautical units.
time (UTC)temp
F
wind
direction
speed
MPH
gust
MPH
rain 1hr
in
rain 24hr
in
rain mn
in
humidity
%
barometer
mb
20260905113033 74 254 0.0 0.0 0.00 0.01 0.01 94 1013.8
20260905111527 75 254 0.0 1.0 0.00 0.01 0.01 94 1013.6
20260905110023 75 254 0.0 1.0 0.00 0.01 0.01 94 1013.4
20260905104517 75 254 0.0 0.0 0.00 0.01 0.01 94 1013.4
20260905103018 75 254 0.0 0.0 0.00 0.01 0.01 94 1013.4
20260905101511 75 254 0.0 0.0 0.00 0.01 0.01 94 1013.4
20260905100041 75 254 0.0 0.0 0.00 0.01 0.01 94 1013.4
20260905094529 75 254 0.0 0.0 0.00 0.01 0.01 94 1013.5
20260905093034 75 254 0.0 0.0 0.01 0.01 0.01 93 1013.3
20260905091520 75 254 0.0 0.0 0.01 0.01 0.01 93 1013.3
20260905090018 75 254 0.0 0.0 0.01 0.01 0.01 93 1013.3
20260905084534 75 254 0.0 0.0 0.01 0.01 0.01 93 1013.2
20260905083032 75 254 0.0 0.0 0.00 0.00 0.00 93 1013.4
20260905081536 75 254 0.0 0.0 0.00 0.00 0.00 93 1013.4
20260905080043 75 254 0.0 0.0 0.00 0.00 0.00 92 1013.2
20260905074524 76 254 0.0 0.0 0.00 0.00 0.00 92 1013.2
20260905073023 76 254 0.0 0.0 0.00 0.00 0.00 92 1013.4
20260905071518 76 254 0.0 0.0 0.00 0.00 0.00 92 1013.4
20260905070039 76 254 0.0 0.0 0.00 0.00 0.00 91 1013.7
20260905064535 77 254 0.0 0.0 0.00 0.00 0.00 91 1013.7
20260905063030 77 254 0.0 0.0 0.00 0.00 0.00 91 1013.7
20260905061526 77 254 0.0 0.0 0.00 0.00 0.00 90 1013.9
20260905060040 78 254 0.0 0.0 0.00 0.00 0.00 90 1013.9
20260905054517 78 254 0.0 0.0 0.00 0.00 0.00 89 1013.9
20260905053036 79 254 0.0 0.0 0.00 0.00 0.00 88 1013.8
20260905051548 80 254 0.0 0.0 0.00 0.00 0.00 87 1013.7
20260905050032 81 254 0.0 0.0 0.00 0.00 0.00 86 1013.7
20260905044537 82 254 0.0 0.0 0.00 0.00 0.00 84 1013.6
20260905043028 83 254 0.0 1.0 0.00 0.00 0.00 82 1013.5
20260905041536 83 248 0.0 1.0 0.00 0.00 0.00 81 1013.5
20260905040041 83 231 0.0 0.0 0.00 0.00 0.00 81 1013.6
20260905034539 83 231 0.0 1.0 0.00 0.00 0.00 81 1013.6
20260905033031 81 252 0.0 3.0 0.00 0.00 0.00 86 1014.2
20260905031538 79 352 0.0 1.0 0.00 0.00 0.00 89 1014.3
20260905030026 79 277 0.0 0.0 0.00 0.00 0.00 90 1014.3
20260905024534 79 277 0.0 0.0 0.00 0.00 0.00 89 1014.3
20260905023035 79 277 0.0 0.0 0.00 0.00 0.00 89 1014.2
20260905021529 80 277 0.0 0.0 0.00 0.00 0.00 88 1014.1
20260905020010 80 277 0.0 0.0 0.00 0.00 0.00 87 1013.9
20260905014509 81 277 0.0 0.0 0.00 0.00 0.00 86 1013.8
20260905013006 81 277 0.0 0.0 0.00 0.00 0.00 85 1013.6
20260905011504 82 277 0.0 0.0 0.00 0.00 0.00 83 1013.5
20260905010020 84 277 0.0 0.0 0.00 0.00 0.00 81 1013.2
20260905004516 86 277 0.0 0.0 0.00 0.00 0.00 77 1013.1
20260905003033 87 277 0.0 2.0 0.00 0.00 0.00 72 1013.2
20260905001508 88 229 0.0 1.0 0.00 0.00 0.00 70 1013.0
20260905000007 89 225 0.0 4.0 0.00 0.00 0.00 67 1012.9
20260904234502 89 224 0.0 7.0 0.00 0.00 0.00 67 1013.0
20260904233043 90 249 0.0 3.0 0.00 0.00 0.00 67 1013.1
20260904231525 91 182 1.0 4.0 0.00 0.00 0.00 64 1013.3
20260904230034 91 246 1.0 5.0 0.00 0.00 0.00 64 1013.3
20260904224512 92 296 0.0 5.0 0.00 0.00 0.00 62 1013.3
20260904223009 93 220 1.0 6.0 0.00 0.00 0.00 61 1013.4
20260904221503 93 243 2.0 5.0 0.00 0.00 0.00 61 1013.3
20260904220029 93 250 1.0 4.0 0.00 0.00 0.00 60 1013.4
20260904214527 93 263 0.0 4.0 0.00 0.00 0.00 59 1013.2
20260904213021 93 218 1.0 5.0 0.00 0.00 0.00 58 1013.1
20260904211517 94 267 1.0 8.0 0.00 0.00 0.00 57 1013.1
20260904210009 94 187 1.0 5.0 0.00 0.00 0.00 57 1013.1
20260904204533 93 269 2.0 5.0 0.00 0.00 0.00 59 1013.4
20260904203030 93 210 1.0 4.0 0.00 0.00 0.00 59 1013.7
20260904201531 93 209 1.0 5.0 0.00 0.00 0.00 59 1013.9
20260904200028 92 179 1.0 6.0 0.00 0.00 0.00 59 1014.0
20260904194521 91 230 1.0 3.0 0.00 0.00 0.00 60 1014.3
20260904193019 91 213 0.0 6.0 0.00 0.00 0.00 61 1014.6
20260904191536 89 187 0.0 5.0 0.00 0.00 0.00 64 1014.6
20260904190031 88 204 0.0 4.0 0.00 0.00 0.00 68 1014.7
20260904184526 87 59 0.0 7.0 0.00 0.00 0.00 65 1015.0
20260904183027 86 102 0.0 8.0 0.00 0.00 0.00 65 1015.1
20260904181520 85 177 1.0 3.0 0.00 0.00 0.00 68 1015.3
20260904180016 83 47 0.0 4.0 0.00 0.00 0.00 70 1015.9
20260904174532 82 86 1.0 6.0 0.00 0.00 0.00 72 1016.3
20260904173035 82 83 1.0 4.0 0.00 0.00 0.00 73 1016.8
20260904171539 81 109 1.0 5.0 0.00 0.00 0.00 73 1017.2
20260904170027 81 69 1.0 6.0 0.00 0.00 0.00 75 1017.1
20260904164526 81 112 1.0 8.0 0.00 0.00 0.00 75 1017.1
20260904163020 81 96 1.0 9.0 0.00 0.00 0.00 75 1017.4
20260904161531 82 33 1.0 7.0 0.00 0.00 0.00 77 1017.1
20260904160036 82 64 0.0 3.0 0.00 0.00 0.00 80 1016.7
20260904154531 83 98 0.0 3.0 0.00 0.00 0.00 78 1016.7
20260904153039 83 115 0.0 2.0 0.00 0.00 0.00 80 1016.0
20260904151524 83 94 0.0 3.0 0.00 0.00 0.00 81 1016.0
20260904150036 82 66 0.0 3.0 0.00 0.00 0.00 82 1015.8
20260904144534 82 101 0.0 6.0 0.00 0.00 0.00 82 1015.7
20260904143035 81 123 0.0 3.0 0.00 0.00 0.00 83 1015.5
20260904141509 79 259 0.0 1.0 0.00 0.00 0.00 85 1015.6
20260904140006 79 259 0.0 0.0 0.00 0.00 0.00 86 1015.4
20260904134516 79 259 0.0 0.0 0.00 0.00 0.00 89 1015.3
20260904133029 78 259 0.0 0.0 0.00 0.00 0.00 88 1015.3
20260904131520 77 259 0.0 0.0 0.00 0.00 0.00 90 1015.3
20260904130015 76 259 0.0 0.0 0.00 0.00 0.00 91 1015.1
20260904124511 75 259 0.0 0.0 0.00 0.00 0.00 91 1014.7
20260904123009 75 259 0.0 0.0 0.00 0.00 0.00 89 1014.5
20260904121523 75 259 0.0 0.0 0.00 0.00 0.00 88 1014.1
20260904120020 76 259 0.0 0.0 0.00 0.00 0.00 87 1013.8
20260904114527 76 259 0.0 0.0 0.00 0.00 0.00 85 1013.7